Wrangell, AK

6:37 PM AKST on January 23, 2017 (GMT -0900)
Wrangell

Weather History for PAWG - February, 2013

Change the Weather History Date:

Tuesday, February 5, 2013

  Actual Average Record
Temperature  
Mean Temperature 38 °F -  
Max Temperature 42 °F 37 °F 56 °F (1954)
Min Temperature 35 °F 26 °F 6 °F (1950)
Degree Days  
Heating Degree Days 26    
Moisture  
Dew Point 30 °F    
Average Humidity 71    
Maximum Humidity 81    
Minimum Humidity 61    
Precipitation  
Precipitation 0.00 in - - ()
Sea Level Pressure  
Sea Level Pressure 29.46 in    
Wind  
Wind Speed 9 mph (ESE)    
Max Wind Speed 15 mph    
Max Gust Speed 22 mph    
Visibility 10 miles    
Events      
Averages and records for this station are not official NWS values.
T = Trace of Precipitation, MM = Missing Value Source: NWS Daily Summary

Daily Weather History Graph

Daily Weather History Graph

Search for Another Location

Airport or City:

Trip Planner

Search our weather history database for the weather conditions in past years. The results will help you decide how hot, cold, wet, or windy it might be!

Date:

Astronomy

Feb. 05, 2013 Rise Set
Actual Time 7:37 AM AKST 4:30 PM AKST
Civil Twilight 6:56 AM AKST 5:11 PM AKST
Nautical Twilight 6:11 AM AKST 5:56 PM AKST
Astronomical Twilight 5:27 AM AKST 6:40 PM AKST
Moon 3:50 AM AKST (2/5) 11:30 AM AKST (2/5)
Length of Visible Light 10h 15m
Length of Day
8h 53m
Waning Crescent, 25% of the Moon is Illuminated
Feb 5
Waning Crescent
Feb 9
New
Feb 17
First Quarter
Feb 25
Full
Mar 4
Last Quarter

Hourly Weather History & Observations

Time (AKST) Temp. Windchill Dew Point Humidity Pressure Visibility Wind Dir Wind Speed Gust Speed Precip Events Conditions
12:16 AM 35.6 °F 29.9 °F 28.4 °F 75% 29.54 in 10.0 mi SE 6.9 mph - N/A   Overcast
12:36 AM 37.4 °F 32.8 °F 28.4 °F 70% 29.53 in 10.0 mi SE 5.8 mph - N/A   Overcast
12:56 AM 37.4 °F 31.4 °F 28.4 °F 70% 29.52 in 10.0 mi ESE 8.1 mph 16.1 mph N/A   Overcast
1:16 AM 37.4 °F 31.4 °F 28.4 °F 70% 29.51 in 10.0 mi ESE 8.1 mph - N/A   Overcast
1:36 AM 35.6 °F 29.9 °F 28.4 °F 75% 29.51 in 10.0 mi SE 6.9 mph - N/A   Overcast
1:56 AM 37.4 °F 30.3 °F 30.2 °F 75% 29.49 in 10.0 mi East 10.4 mph - N/A   Overcast
2:16 AM 37.4 °F 29.3 °F 30.2 °F 75% 29.49 in 10.0 mi East 12.7 mph - N/A   Overcast
2:36 AM 37.4 °F 30.3 °F 28.4 °F 70% 29.49 in 10.0 mi East 10.4 mph - N/A   Overcast
2:56 AM 37.4 °F 29.8 °F 30.2 °F 75% 29.48 in 10.0 mi East 11.5 mph - N/A   Overcast
3:16 AM 37.4 °F 29.3 °F 30.2 °F 75% 29.47 in 10.0 mi East 12.7 mph - N/A   Overcast
3:36 AM 37.4 °F 29.3 °F 30.2 °F 75% 29.46 in 10.0 mi East 12.7 mph - N/A   Overcast
3:56 AM 37.4 °F 30.8 °F 30.2 °F 75% 29.45 in 10.0 mi ESE 9.2 mph - N/A   Overcast
4:16 AM 37.4 °F 30.8 °F 30.2 °F 75% 29.45 in 10.0 mi SE 9.2 mph - N/A   Overcast
4:36 AM 37.4 °F 32.1 °F 30.2 °F 75% 29.44 in 10.0 mi SE 6.9 mph - N/A   Overcast
4:56 AM 37.4 °F 31.4 °F 30.2 °F 75% 29.44 in 10.0 mi SE 8.1 mph - N/A   Overcast
5:16 AM 37.4 °F 30.8 °F 30.2 °F 75% 29.44 in 10.0 mi ESE 9.2 mph - N/A   Overcast
5:36 AM 37.4 °F 30.8 °F 30.2 °F 75% 29.43 in 10.0 mi ESE 9.2 mph - N/A   Overcast
5:56 AM 37.4 °F 30.3 °F 30.2 °F 75% 29.43 in 10.0 mi ESE 10.4 mph - N/A   Overcast
6:16 AM 37.4 °F 28.9 °F 30.2 °F 75% 29.42 in 10.0 mi East 13.8 mph 18.4 mph N/A   Overcast
6:36 AM 39.2 °F 30.8 °F 28.4 °F 65% 29.42 in 10.0 mi East 15.0 mph - N/A   Overcast
6:56 AM 37.4 °F 29.3 °F 28.4 °F 70% 29.43 in 10.0 mi East 12.7 mph - N/A   Overcast
7:16 AM 37.4 °F 28.5 °F 28.4 °F 70% 29.42 in 10.0 mi ESE 15.0 mph 21.9 mph N/A   Overcast
7:36 AM 37.4 °F 30.8 °F 28.4 °F 70% 29.42 in 10.0 mi East 9.2 mph - N/A   Overcast
7:56 AM 37.4 °F 31.4 °F 28.4 °F 70% 29.43 in 10.0 mi SE 8.1 mph - N/A   Overcast
8:16 AM 37.4 °F 30.3 °F 30.2 °F 75% 29.42 in 10.0 mi SE 10.4 mph - N/A   Overcast
8:36 AM 37.4 °F 31.4 °F 30.2 °F 75% 29.43 in 10.0 mi SE 8.1 mph - N/A   Overcast
8:56 AM 37.4 °F 30.3 °F 32.0 °F 81% 29.43 in 10.0 mi ESE 10.4 mph - N/A   Overcast
9:16 AM 37.4 °F 29.3 °F 32.0 °F 81% 29.43 in 10.0 mi East 12.7 mph - N/A   Overcast
9:36 AM 37.4 °F 29.3 °F 30.2 °F 75% 29.42 in 10.0 mi East 12.7 mph - N/A   Overcast
9:56 AM 39.2 °F 31.6 °F 30.2 °F 70% 29.43 in 10.0 mi East 12.7 mph - N/A   Overcast
10:16 AM 39.2 °F 32.0 °F 30.2 °F 70% 29.43 in 10.0 mi East 11.5 mph - N/A   Overcast
10:36 AM 39.2 °F 32.0 °F 30.2 °F 70% 29.42 in 10.0 mi East 11.5 mph - N/A   Overcast
10:56 AM 39.2 °F 31.6 °F 32.0 °F 75% 29.42 in 10.0 mi East 12.7 mph - N/A   Mostly Cloudy
11:16 AM 41.0 °F 33.5 °F 32.0 °F 70% 29.42 in 10.0 mi East 13.8 mph 18.4 mph N/A   Mostly Cloudy
11:36 AM 41.0 °F 33.5 °F 30.2 °F 65% 29.43 in 10.0 mi East 13.8 mph 18.4 mph N/A   Mostly Cloudy
11:56 AM 41.0 °F 33.5 °F 30.2 °F 65% 29.43 in 10.0 mi East 13.8 mph 20.7 mph N/A   Mostly Cloudy
12:16 PM 41.0 °F 33.5 °F 30.2 °F 65% 29.43 in 10.0 mi East 13.8 mph - N/A   Mostly Cloudy
12:36 PM 41.0 °F 33.5 °F 30.2 °F 65% 29.43 in 10.0 mi East 13.8 mph - N/A   Mostly Cloudy
12:56 PM 42.8 °F 36.2 °F 30.2 °F 61% 29.44 in 10.0 mi East 12.7 mph - N/A   Mostly Cloudy
1:16 PM 42.8 °F 36.6 °F 30.2 °F 61% 29.44 in 10.0 mi East 11.5 mph - N/A   Mostly Cloudy
1:36 PM 42.8 °F 35.4 °F 30.2 °F 61% 29.44 in 10.0 mi East 15.0 mph - N/A   Mostly Cloudy
1:56 PM 41.0 °F 37.1 °F 30.2 °F 65% 29.45 in 10.0 mi SE 5.8 mph - N/A   Mostly Cloudy
2:16 PM 41.0 °F - 30.2 °F 65% 29.46 in 10.0 mi Calm Calm - N/A   Mostly Cloudy
2:36 PM 41.0 °F 35.8 °F 32.0 °F 70% 29.45 in 10.0 mi East 8.1 mph - N/A   Mostly Cloudy
2:56 PM 41.0 °F 39.0 °F 30.2 °F 65% 29.46 in 10.0 mi East 3.5 mph - N/A   Mostly Cloudy
3:16 PM 41.0 °F - 30.2 °F 65% 29.46 in 10.0 mi Calm Calm - N/A   Overcast
3:36 PM 39.2 °F 33.6 °F 30.2 °F 70% 29.46 in 10.0 mi East 8.1 mph - N/A   Overcast
3:56 PM 39.2 °F 32.5 °F 30.2 °F 70% 29.46 in 10.0 mi East 10.4 mph - N/A   Overcast
4:16 PM 39.2 °F 33.6 °F 30.2 °F 70% 29.46 in 10.0 mi East 8.1 mph - N/A   Overcast
4:36 PM 39.2 °F - 30.2 °F 70% 29.47 in 10.0 mi Calm Calm - N/A   Overcast
4:56 PM 39.2 °F - 28.4 °F 65% 29.47 in 10.0 mi Calm Calm - N/A   Overcast
5:16 PM 39.2 °F 32.5 °F 28.4 °F 65% 29.47 in 10.0 mi East 10.4 mph - N/A   Overcast
5:36 PM 39.2 °F 33.6 °F 28.4 °F 65% 29.47 in 10.0 mi East 8.1 mph - N/A   Overcast
5:56 PM 39.2 °F 33.6 °F 28.4 °F 65% 29.47 in 10.0 mi ESE 8.1 mph - N/A   Overcast
6:16 PM 37.4 °F 32.1 °F 30.2 °F 75% 29.47 in 10.0 mi NE 6.9 mph - N/A   Overcast
6:36 PM 37.4 °F 30.3 °F 28.4 °F 70% 29.47 in 10.0 mi ESE 10.4 mph - N/A   Overcast
6:56 PM 37.4 °F 30.8 °F 30.2 °F 75% 29.47 in 10.0 mi ESE 9.2 mph - N/A   Overcast
7:16 PM 37.4 °F 31.4 °F 30.2 °F 75% 29.47 in 10.0 mi ESE 8.1 mph - N/A   Overcast
7:36 PM 37.4 °F 31.4 °F 30.2 °F 75% 29.47 in 10.0 mi East 8.1 mph - N/A   Overcast
7:56 PM 37.4 °F 31.4 °F 28.4 °F 70% 29.48 in 10.0 mi East 8.1 mph - N/A   Overcast
8:16 PM 37.4 °F 32.1 °F 28.4 °F 70% 29.48 in 10.0 mi East 6.9 mph - N/A   Overcast
8:36 PM 37.4 °F 32.1 °F 28.4 °F 70% 29.48 in 10.0 mi East 6.9 mph - N/A   Overcast
8:56 PM 37.4 °F 32.1 °F 28.4 °F 70% 29.49 in 10.0 mi East 6.9 mph - N/A   Overcast
9:16 PM 37.4 °F 31.4 °F 28.4 °F 70% 29.49 in 10.0 mi East 8.1 mph - N/A   Overcast
9:36 PM 37.4 °F 31.4 °F 28.4 °F 70% 29.50 in 10.0 mi SE 8.1 mph - N/A   Overcast
9:56 PM 37.4 °F 29.8 °F 28.4 °F 70% 29.50 in 10.0 mi East 11.5 mph - N/A   Overcast
10:16 PM 37.4 °F 30.3 °F 28.4 °F 70% 29.50 in 10.0 mi East 10.4 mph - N/A   Overcast
10:36 PM 37.4 °F 28.9 °F 30.2 °F 75% 29.50 in 10.0 mi ESE 13.8 mph - N/A   Overcast
10:56 PM 37.4 °F 28.9 °F 30.2 °F 75% 29.51 in 10.0 mi East 13.8 mph - N/A   Overcast
11:16 PM 37.4 °F 30.3 °F 28.4 °F 70% 29.51 in 10.0 mi ENE 10.4 mph - N/A   Overcast
11:36 PM 37.4 °F 31.4 °F 30.2 °F 75% 29.52 in 10.0 mi ESE 8.1 mph - N/A   Overcast
11:56 PM 37.4 °F 32.1 °F 30.2 °F 75% 29.52 in 10.0 mi ESE 6.9 mph - N/A   Overcast